Location: Allos
(44.2333°N, 6.6333°E)
Time: 12:32:19
(UTC+00:00)

Cosmos 1535 Rocket - Pass Details

Date: 01 December 2020
Orbit: 949 x 1003 km, 83.0° (Epoch: 25 January)

Event Time Altitude Azimuth Distance (km) Brightness Sun altitude
Rises 18:37:28 0° 350° (N) 3,634 7.6 -28.3°
Reaches altitude 10° 18:39:58 10° 350° (N) 2,683 6.9 -28.7°
Maximum altitude 18:46:05 81° 264° (W) 966 4.4 -29.8°
Drops below altitude 10° 18:52:11 10° 178° (S) 2,674 6.8 -30.9°
Sets 18:54:41 0° 177° (S) 3,620 7.5 -31.3°
